Spencer, IA

12:01 AM CDT on June 25, 2017 (GMT -0500)
Spencer Municipal

Weather History for KSPW - January, 2014

Change the Weather History Date:

Monday, January 6, 2014

  Actual Average Record
Temperature  
Mean Temperature -12 °F -  
Max Temperature -7 °F 22 °F 46 °F (2012)
Min Temperature -18 °F 3 °F -24 °F (1988)
Degree Days  
Heating Degree Days 78    
Moisture  
Dew Point -21 °F    
Average Humidity 64    
Maximum Humidity 71    
Minimum Humidity 59    
Precipitation  
Precipitation 0.00 in - - ()
Sea Level Pressure  
Sea Level Pressure 30.42 in    
Wind  
Wind Speed 18 mph (WNW)    
Max Wind Speed 26 mph    
Max Gust Speed 33 mph    
Visibility 10 miles    
Events      
Averages and records for this station are not official NWS values.
T = Trace of Precipitation, MM = Missing Value Source: NWS Daily Summary

Daily Weather History Graph

Daily Weather History Graph

Search for Another Location

Airport or City:

Trip Planner

Search our weather history database for the weather conditions in past years. The results will help you decide how hot, cold, wet, or windy it might be!

Date:

Astronomy

Jan. 06, 2014 Rise Set
Actual Time 7:52 AM CST 5:01 PM CST
Civil Twilight 7:20 AM CST 5:33 PM CST
Nautical Twilight 6:44 AM CST 6:08 PM CST
Astronomical Twilight 6:10 AM CST 6:43 PM CST
Moon 10:58 AM CST (1/6) 11:46 PM CST (1/6)
Length of Visible Light 10h 12m
Length of Day
9h 08m
Waxing Crescent, 35% of the Moon is Illuminated
Jan 6
Waxing Crescent
Jan 7
First Quarter
Jan 15
Full
Jan 23
Last Quarter
Jan 30
New

Hourly Weather History & Observations

Time (CST) Temp. Windchill Dew Point Humidity Pressure Visibility Wind Dir Wind Speed Gust Speed Precip Events Conditions
12:53 AM -16.1 °F -42.1 °F -25.1 °F 64% 30.48 in 10.0 mi WNW 18.4 mph 28.8 mph N/A   Clear
1:53 AM -16.1 °F -44.6 °F -26.0 °F 61% 30.48 in 10.0 mi WNW 23.0 mph 29.9 mph N/A   Clear
2:53 AM -16.1 °F -41.4 °F -26.0 °F 61% 30.49 in 10.0 mi NW 17.3 mph 25.3 mph N/A   Scattered Clouds
3:53 AM -17.0 °F -40.2 °F -26.0 °F 64% 30.49 in 10.0 mi NW 13.8 mph - N/A   Clear
4:53 AM -17.0 °F -43.3 °F -26.0 °F 64% 30.48 in 10.0 mi NW 18.4 mph 25.3 mph N/A   Clear
5:53 AM -18.0 °F -44.0 °F -27.0 °F 64% 30.48 in 10.0 mi NW 17.3 mph - N/A   Clear
6:53 AM -18.0 °F -44.0 °F -27.0 °F 64% 30.48 in 10.0 mi NW 17.3 mph - N/A   Clear
7:53 AM -18.0 °F -42.5 °F -27.0 °F 64% 30.49 in 10.0 mi NW 15.0 mph - N/A   Clear
8:53 AM -16.1 °F -41.4 °F -26.0 °F 61% 30.49 in 10.0 mi NW 17.3 mph - N/A   Clear
9:53 AM -14.1 °F -40.8 °F -24.0 °F 61% 30.51 in 10.0 mi NW 20.7 mph 27.6 mph N/A   Clear
10:53 AM -11.9 °F -38.6 °F -22.0 °F 61% 30.50 in 10.0 mi NW 21.9 mph - N/A   Clear
11:53 AM -9.9 °F -36.0 °F -20.9 °F 59% 30.48 in 10.0 mi NW 21.9 mph 28.8 mph N/A   Clear
12:53 PM -9.0 °F -35.3 °F -18.9 °F 62% 30.45 in 10.0 mi WNW 23.0 mph 27.6 mph N/A   Mostly Cloudy
1:03 PM -9.0 °F -33.0 °F -18.9 °F 62% 30.30 in 10.0 mi WNW 18.4 mph 26.5 mph N/A   Scattered Clouds
1:53 PM -7.1 °F -32.7 °F -17.0 °F 62% 30.42 in 10.0 mi WNW 23.0 mph 29.9 mph N/A   Partly Cloudy
2:51 PM -7.6 °F -32.3 °F -16.6 °F 65% 30.29 in 10.0 mi West 20.7 mph 32.2 mph N/A   Mostly Cloudy
2:53 PM -7.1 °F -31.6 °F -17.0 °F 62% 30.43 in 10.0 mi West 20.7 mph 32.2 mph N/A   Mostly Cloudy
3:02 PM -7.1 °F -34.1 °F -17.0 °F 62% 30.30 in 10.0 mi West 26.5 mph 33.4 mph N/A   Scattered Clouds
3:11 PM -7.1 °F -32.1 °F -17.0 °F 62% 30.29 in 10.0 mi WNW 21.9 mph 33.4 mph N/A   Mostly Cloudy
3:53 PM -7.1 °F -31.6 °F -17.0 °F 62% 30.43 in 10.0 mi WNW 20.7 mph 28.8 mph N/A   Mostly Cloudy
4:13 PM -7.1 °F -32.1 °F -17.0 °F 62% 30.29 in 10.0 mi WNW 21.9 mph 28.8 mph N/A   Scattered Clouds
4:53 PM -8.0 °F -32.2 °F -18.0 °F 61% 30.42 in 10.0 mi West 19.6 mph 26.5 mph N/A   Partly Cloudy
5:53 PM -9.0 °F -33.0 °F -18.0 °F 65% 30.41 in 10.0 mi West 18.4 mph - N/A   Clear
6:53 PM -9.0 °F -30.2 °F -18.0 °F 65% 30.40 in 10.0 mi West 13.8 mph - N/A   Clear
7:53 PM -9.9 °F -29.6 °F -18.0 °F 68% 30.40 in 10.0 mi West 11.5 mph - N/A   Clear
8:53 PM -9.0 °F -28.4 °F -17.0 °F 68% 30.37 in 10.0 mi West 11.5 mph - N/A   Clear
9:53 PM -9.0 °F -29.3 °F -17.0 °F 68% 30.36 in 10.0 mi West 12.7 mph - N/A   Clear
10:53 PM -9.0 °F -25.2 °F -16.1 °F 71% 30.34 in 10.0 mi WNW 8.1 mph - N/A   Clear
11:53 PM -9.0 °F -25.2 °F -16.1 °F 71% 30.33 in 10.0 mi West 8.1 mph - N/A   Partly Cloudy